FW3961 Weather Reports


Display with metric or nautical units.
time (UTC)temp
F
wind
direction
speed
MPH
gust
MPH
rain 1hr
in
rain 24hr
in
rain mn
in
humidity
%
barometer
mb
20260508111350 49 116 0.0 0.0 0.00 0.00 0.00 88 1019.7
20260508111346 49 116 0.0 0.0 0.00 0.00 0.00 88 1019.8
20260508110345 49 116 0.0 0.0 0.00 0.00 0.00 88 1019.7
20260508105842 49 116 0.0 0.0 0.00 0.00 0.00 88 1019.6
20260508105343 49 116 0.0 0.0 0.00 0.00 0.00 88 1019.5
20260508104843 49 116 0.0 0.0 0.00 0.00 0.00 88 1019.5
20260508104343 49 116 0.0 0.0 0.00 0.00 0.00 88 1019.5
20260508103843 49 116 0.0 0.0 0.00 0.00 0.00 87 1019.4
20260508103342 49 116 0.0 0.0 0.00 0.00 0.00 87 1019.5
20260508102843 49 116 0.0 0.0 0.00 0.00 0.00 87 1019.4
20260508102342 49 116 0.0 0.0 0.00 0.00 0.00 87 1019.4
20260508101838 49 116 0.0 0.0 0.00 0.00 0.00 87 1019.2
20260508101338 49 116 0.0 2.0 0.00 0.00 0.00 86 1019.1
20260508101109 49 116 1.0 2.0 0.00 0.00 0.00 86 1019.1
20260508100948 50 115 2.0 3.0 0.00 0.00 0.00 85 1019.1
20260508100338 50 116 1.0 2.0 0.00 0.00 0.00 86 1019.1
20260508095838 50 115 1.0 2.0 0.00 0.00 0.00 86 1019.1
20260508094839 50 115 2.0 3.0 0.00 0.00 0.00 85 1019.0
20260508094338 50 111 2.0 3.0 0.00 0.00 0.00 85 1019.0
20260508093839 49 108 2.0 3.0 0.00 0.00 0.00 84 1018.8
20260508093834 50 330 2.0 3.0 0.00 0.00 0.00 83 1018.8
20260508093153 50 330 1.0 3.0 0.00 0.00 0.00 82 1018.6
20260508093048 51 329 0.0 2.0 0.00 0.00 0.00 81 1018.7
20260508091811 51 329 0.0 0.0 0.00 0.00 0.00 80 1018.6
20260508091807 51 329 0.0 0.0 0.00 0.00 0.00 80 1018.7
20260508090758 51 329 0.0 0.0 0.00 0.00 0.00 79 1018.7
20260508090252 51 329 0.0 0.0 0.00 0.00 0.00 79 1018.6
20260508085746 51 329 0.0 0.0 0.00 0.00 0.00 79 1018.6
20260508085239 51 329 0.0 0.0 0.00 0.00 0.00 79 1018.5
20260508084732 52 329 0.0 1.0 0.00 0.00 0.00 79 1018.6
20260508084226 52 329 0.0 1.0 0.00 0.00 0.00 79 1018.5
20260508083720 52 331 0.0 0.0 0.00 0.00 0.00 79 1018.5
20260508083716 52 331 0.0 1.0 0.00 0.00 0.00 79 1018.5
20260508082707 52 331 0.0 1.0 0.00 0.00 0.00 79 1018.4
20260508082201 52 333 0.0 1.0 0.00 0.00 0.00 79 1018.3
20260508081656 52 333 0.0 0.0 0.00 0.00 0.00 79 1018.4
20260508081149 52 333 0.0 0.0 0.00 0.00 0.00 78 1018.4
20260508080643 53 333 0.0 0.0 0.00 0.00 0.00 78 1018.2
20260508080138 53 333 0.0 0.0 0.00 0.00 0.00 77 1018.3
20260508075632 53 333 0.0 0.0 0.00 0.00 0.00 77 1018.4
20260508075126 53 333 0.0 0.0 0.00 0.00 0.00 76 1018.3
20260508074620 53 333 0.0 0.0 0.00 0.00 0.00 76 1018.4
20260508074114 53 333 0.0 0.0 0.00 0.00 0.00 76 1018.3
20260508073608 54 333 0.0 0.0 0.00 0.00 0.00 76 1018.2
20260508073102 54 333 0.0 0.0 0.00 0.00 0.00 75 1018.1
20260508072557 54 333 0.0 0.0 0.00 0.00 0.00 75 1018.2
20260508072049 54 333 0.0 0.0 0.00 0.00 0.00 74 1018.0
20260508071544 54 333 0.0 0.0 0.00 0.00 0.00 74 1018.0
20260508071039 55 333 0.0 0.0 0.00 0.00 0.00 74 1017.9
20260508070532 55 333 0.0 0.0 0.00 0.00 0.00 74 1017.9
20260508070026 55 333 0.0 0.0 0.00 0.00 0.00 73 1017.9
20260508065521 55 333 0.0 0.0 0.00 0.00 0.00 73 1018.0
20260508065015 55 333 0.0 0.0 0.00 0.00 0.00 73 1017.9
20260508064513 55 333 0.0 0.0 0.00 0.00 0.00 72 1017.9
20260508064509 56 333 0.0 0.0 0.00 0.00 0.00 72 1018.0
20260508063456 56 333 0.0 0.0 0.00 0.00 0.00 72 1017.9
20260508062951 56 333 0.0 1.0 0.00 0.00 0.00 72 1018.0
20260508062947 56 333 0.0 1.0 0.00 0.00 0.00 71 1018.1
20260508061938 56 333 0.0 2.0 0.00 0.00 0.00 71 1018.0
20260508061934 56 333 0.0 2.0 0.00 0.00 0.00 71 1018.0
20260508060926 56 301 0.0 2.0 0.00 0.00 0.00 70 1018.0
20260508060424 57 301 0.0 2.0 0.00 0.00 0.00 70 1017.9
20260508060420 57 301 1.0 2.0 0.00 0.00 0.00 70 1018.0
20260508055405 57 301 0.0 1.0 0.00 0.00 0.00 69 1017.8
20260508054858 57 301 0.0 1.0 0.00 0.00 0.00 69 1017.7
20260508054353 58 301 1.0 2.0 0.00 0.00 0.00 69 1017.8
20260508053849 58 301 1.0 2.0 0.00 0.00 0.00 68 1017.9
20260508053341 58 301 0.0 2.0 0.00 0.00 0.00 68 1017.8
20260508052834 58 301 0.0 2.0 0.00 0.00 0.00 68 1017.9
20260508052329 58 301 1.0 2.0 0.00 0.00 0.00 67 1017.8
20260508051824 59 301 1.0 4.0 0.00 0.00 0.00 67 1017.9
20260508051316 59 266 0.0 4.0 0.00 0.00 0.00 66 1017.9
20260508050811 59 14 1.0 3.0 0.00 0.00 0.00 66 1017.9
20260508050305 59 15 1.0 3.0 0.00 0.00 0.00 66 1017.9
20260508045758 60 309 1.0 3.0 0.00 0.00 0.00 66 1018.0
20260508045253 60 308 0.0 3.0 0.00 0.00 0.00 66 1018.0
20260508044749 60 301 1.0 2.0 0.00 0.00 0.00 66 1017.9
20260508044242 60 299 1.0 4.0 0.00 0.00 0.00 66 1018.0
20260508043735 61 304 1.0 4.0 0.00 0.00 0.00 66 1018.0
20260508043228 61 282 1.0 2.0 0.00 0.00 0.00 65 1018.0
20260508042723 62 288 1.0 3.0 0.00 0.00 0.00 66 1018.0
20260508042219 62 285 1.0 3.0 0.00 0.00 0.00 65 1017.9
20260508041710 62 281 1.0 3.0 0.00 0.00 0.00 65 1017.9
20260508041205 63 284 1.0 2.0 0.00 0.00 0.00 64 1017.7
20260508040659 63 284 0.0 2.0 0.00 0.00 0.00 63 1017.7
20260508040152 63 284 0.0 2.0 0.00 0.00 0.00 62 1017.4
20260508035652 64 284 0.0 2.0 0.00 0.00 0.00 61 1017.6
20260508035157 64 284 1.0 3.0 0.00 0.00 0.00 59 1017.5
20260508035152 64 284 0.0 1.0 0.00 0.00 0.00 59 1017.5
20260508034153 65 284 0.0 3.0 0.00 0.00 0.00 57 1017.3
20260508033650 65 105 0.0 0.0 0.00 0.00 0.00 53 1017.2
20260508033152 65 105 0.0 0.0 0.00 0.00 0.00 53 1017.1
20260508032651 66 106 0.0 0.0 0.00 0.00 0.00 54 1017.1
20260508032151 66 106 0.0 0.0 0.00 0.00 0.00 54 1017.0
20260508031650 66 105 0.0 0.0 0.00 0.00 0.00 53 1016.9
20260508031200 66 105 0.0 0.0 0.00 0.00 0.00 53 1016.9
20260508031151 66 105 0.0 0.0 0.00 0.00 0.00 53 1016.9
20260508030646 66 105 0.0 0.0 0.00 0.00 0.00 53 1016.9
20260508025647 67 105 0.0 0.0 0.00 0.00 0.00 53 1017.0
20260508025146 67 105 0.0 0.0 0.00 0.00 0.00 53 1016.9
20260508024646 67 105 0.0 0.0 0.00 0.00 0.00 53 1016.9
20260508024151 67 105 0.0 0.0 0.00 0.00 0.00 54 1017.0
20260508023650 67 105 0.0 0.0 0.00 0.00 0.00 53 1017.0
20260508023151 67 106 0.0 2.0 0.00 0.00 0.00 51 1017.0
20260508022652 68 105 0.0 2.0 0.00 0.00 0.00 51 1017.0
20260508022140 68 106 0.0 1.0 0.00 0.00 0.00 52 1017.0
20260508021641 68 106 0.0 1.0 0.00 0.00 0.00 53 1017.0
20260508021148 68 106 1.0 2.0 0.00 0.00 0.00 53 1016.9
20260508021144 68 106 0.0 1.0 0.00 0.00 0.00 53 1016.9
20260508020137 69 106 1.0 2.0 0.00 0.00 0.00 53 1016.9
20260508015637 69 106 1.0 2.0 0.00 0.00 0.00 53 1016.9
20260508015137 69 106 1.0 3.0 0.00 0.00 0.00 51 1016.9
20260508014637 69 105 1.0 3.0 0.00 0.00 0.00 52 1017.0
20260508014136 70 143 1.0 2.0 0.00 0.00 0.00 52 1017.0
20260508013636 70 142 1.0 2.0 0.00 0.00 0.00 52 1017.2
20260508013137 70 142 1.0 2.0 0.00 0.00 0.00 52 1017.2
20260508012636 70 143 0.0 2.0 0.00 0.00 0.00 53 1017.3
20260508012139 71 143 1.0 2.0 0.00 0.00 0.00 51 1017.4
20260508011632 71 143 1.0 2.0 0.00 0.00 0.00 51 1017.4
20260508011134 71 147 1.0 2.0 0.00 0.00 0.00 52 1017.4
20260508010633 71 147 1.0 2.0 0.00 0.00 0.00 49 1017.4
20260508010132 72 147 1.0 4.0 0.00 0.00 0.00 51 1017.5
20260508005627 72 147 1.0 4.0 0.00 0.00 0.00 48 1017.4
20260508005120 73 205 1.0 3.0 0.00 0.00 0.00 48 1017.4
20260508004614 73 210 1.0 3.0 0.00 0.00 0.00 46 1017.5
20260508004108 73 171 1.0 3.0 0.00 0.00 0.00 46 1017.5
20260508003604 73 225 1.0 3.0 0.00 0.00 0.00 45 1017.6
20260508003056 73 180 1.0 2.0 0.00 0.00 0.00 48 1017.5
20260508002550 73 180 1.0 2.0 0.00 0.00 0.00 48 1017.6
20260508002044 73 214 0.0 2.0 0.00 0.00 0.00 46 1017.6
20260508001540 73 215 0.0 3.0 0.00 0.00 0.00 50 1017.7
20260508001031 73 218 1.0 3.0 0.00 0.00 0.00 47 1017.6
20260508000526 73 318 1.0 2.0 0.00 0.00 0.00 46 1017.6
20260508000019 73 318 1.0 4.0 0.00 0.00 0.00 47 1017.7
20260507235515 73 315 1.0 4.0 0.00 0.00 0.00 46 1017.8
20260507235008 73 334 1.0 4.0 0.00 0.00 0.00 48 1017.8
20260507234503 72 281 1.0 4.0 0.00 0.00 0.00 48 1017.9
20260507233955 73 42 1.0 4.0 0.00 0.00 0.00 49 1017.8
20260507233452 73 355 2.0 4.0 0.00 0.00 0.00 47 1017.9
20260507232943 73 78 1.0 3.0 0.00 0.00 0.00 47 1018.0
20260507232438 73 155 1.0 4.0 0.00 0.00 0.00 48 1018.1
20260507231932 73 350 1.0 4.0 0.00 0.00 0.00 47 1018.1
20260507231427 73 292 1.0 4.0 0.00 0.00 0.00 47 1018.2
20260507230920 74 144 1.0 4.0 0.00 0.00 0.00 47 1018.3
20260507230414 74 227 1.0 4.0 0.00 0.00 0.00 48 1018.4
20260507225908 73 333 2.0 7.0 0.00 0.00 0.00 49 1018.5
20260507225404 73 308 2.0 7.0 0.00 0.00 0.00 49 1018.6
20260507224856 73 177 1.0 4.0 0.00 0.00 0.00 48 1018.6
20260507224350 73 329 2.0 5.0 0.00 0.00 0.00 49 1018.6
20260507224346 73 351 1.0 5.0 0.00 0.00 0.00 47 1018.8
20260507223337 73 37 1.0 4.0 0.00 0.00 0.00 49 1018.7
20260507223330 73 306 1.0 8.0 0.00 0.00 0.00 47 1018.9
20260507223207 73 71 1.0 4.0 0.00 0.00 0.00 49 1018.9
20260507221820 73 11 1.0 8.0 0.00 0.00 0.00 48 1018.9
20260507221314 73 187 1.0 5.0 0.00 0.00 0.00 49 1019.1
20260507220808 72 196 1.0 5.0 0.00 0.00 0.00 49 1019.0
20260507220302 72 49 1.0 4.0 0.00 0.00 0.00 49 1019.2
20260507215758 72 267 2.0 4.0 0.00 0.00 0.00 49 1019.4
20260507215250 72 330 1.0 3.0 0.00 0.00 0.00 50 1019.2
20260507215246 72 0 1.0 4.0 0.00 0.00 0.00 50 1019.5
20260507214238 72 294 1.0 4.0 0.00 0.00 0.00 50 1019.4
20260507213732 72 254 1.0 4.0 0.00 0.00 0.00 52 1019.4
20260507213226 71 225 2.0 4.0 0.00 0.00 0.00 53 1019.5
20260507212720 71 344 2.0 4.0 0.00 0.00 0.00 53 1019.5
20260507212214 71 298 1.0 5.0 0.00 0.00 0.00 54 1019.6
20260507211710 71 325 1.0 5.0 0.00 0.00 0.00 53 1019.6
20260507211210 71 184 2.0 5.0 0.00 0.00 0.00 56 1019.7
20260507210710 71 346 1.0 5.0 0.00 0.00 0.00 55 1019.7
20260507210210 70 212 1.0 4.0 0.00 0.00 0.00 56 1019.8
20260507205709 70 225 1.0 4.0 0.00 0.00 0.00 59 1019.9
20260507205208 70 348 2.0 4.0 0.00 0.00 0.00 56 1019.9
20260507204709 70 287 1.0 5.0 0.00 0.00 0.00 57 1019.9
20260507204207 70 192 2.0 5.0 0.00 0.00 0.00 57 1020.0
20260507203707 69 307 1.0 5.0 0.00 0.00 0.00 56 1020.0
20260507203210 69 243 2.0 5.0 0.00 0.00 0.00 59 1020.3
20260507203206 69 240 1.0 5.0 0.00 0.00 0.00 59 1020.1
20260507202206 69 213 2.0 5.0 0.00 0.00 0.00 59 1020.3
20260507201707 68 296 1.0 3.0 0.00 0.00 0.00 59 1020.4
20260507201206 68 319 2.0 4.0 0.00 0.00 0.00 60 1020.4
20260507200704 68 199 2.0 4.0 0.00 0.00 0.00 62 1020.3
20260507200205 67 220 2.0 4.0 0.00 0.00 0.00 61 1020.5
20260507195704 67 321 2.0 4.0 0.00 0.00 0.00 63 1020.5
20260507195204 67 271 1.0 4.0 0.00 0.00 0.00 64 1020.5
20260507194705 67 21 2.0 4.0 0.00 0.00 0.00 63 1020.5
20260507194203 67 270 2.0 4.0 0.00 0.00 0.00 62 1020.6
20260507193704 67 19 2.0 4.0 0.00 0.00 0.00 63 1020.7
20260507193204 67 178 2.0 5.0 0.00 0.00 0.00 64 1020.5
20260507192704 67 333 2.0 5.0 0.00 0.00 0.00 63 1020.7
20260507192200 67 325 2.0 4.0 0.00 0.00 0.00 63 1020.7
20260507191700 67 196 2.0 4.0 0.00 0.00 0.00 63 1020.8
20260507191200 67 294 1.0 5.0 0.00 0.00 0.00 64 1020.8
20260507190659 66 280 1.0 5.0 0.00 0.00 0.00 68 1021.0
20260507190205 65 132 1.0 4.0 0.00 0.00 0.00 66 1021.0
20260507185704 64 130 1.0 4.0 0.00 0.00 0.00 68 1021.1
20260507185205 64 5 1.0 4.0 0.00 0.00 0.00 68 1021.0
20260507184703 63 56 2.0 5.0 0.00 0.00 0.00 69 1021.0
20260507184205 62 80 2.0 5.0 0.00 0.00 0.00 69 1021.1
20260507183657 62 50 2.0 4.0 0.00 0.00 0.00 73 1021.1
20260507183151 61 0 2.0 4.0 0.00 0.00 0.00 71 1021.2
20260507182645 61 61 1.0 4.0 0.00 0.00 0.00 73 1021.2
20260507182140 61 302 1.0 4.0 0.00 0.00 0.00 73 1021.2
20260507181640 61 20 2.0 8.0 0.00 0.00 0.00 73 1021.3
20260507181636 61 113 2.0 5.0 0.00 0.00 0.00 73 1021.2
20260507180622 61 0 1.0 3.0 0.00 0.00 0.00 74 1021.3
20260507180116 60 65 1.0 3.0 0.00 0.00 0.00 75 1021.3
20260507175609 60 62 1.0 3.0 0.00 0.00 0.00 73 1021.3
20260507175107 60 33 1.0 4.0 0.00 0.00 0.00 73 1021.4
20260507175058 60 314 1.0 4.0 0.00 0.00 0.00 73 1021.4
20260507174050 60 80 1.0 4.0 0.00 0.00 0.00 73 1021.5
20260507173543 60 318 1.0 4.0 0.00 0.00 0.00 75 1021.4
20260507173037 59 340 1.0 5.0 0.00 0.00 0.00 75 1021.5
20260507172533 59 0 1.0 5.0 0.00 0.00 0.00 75 1021.4
20260507172025 59 319 1.0 4.0 0.00 0.00 0.00 75 1021.5
20260507171520 59 282 1.0 3.0 0.00 0.00 0.00 76 1021.5
20260507171013 58 296 1.0 5.0 0.00 0.00 0.00 76 1021.4
20260507170507 58 58 1.0 5.0 0.00 0.00 0.00 77 1021.5
20260507170001 58 300 1.0 5.0 0.00 0.00 0.00 78 1021.4
20260507165456 58 5 2.0 4.0 0.00 0.00 0.00 77 1021.4
20260507164949 57 316 1.0 3.0 0.00 0.00 0.00 78 1021.3
20260507164443 57 221 1.0 3.0 0.00 0.00 0.00 78 1021.3
20260507163937 57 307 1.0 4.0 0.00 0.00 0.00 79 1021.4
20260507163432 56 331 1.0 4.0 0.00 0.00 0.00 79 1021.3
20260507162925 56 303 1.0 4.0 0.00 0.00 0.00 78 1021.3
20260507162420 56 342 1.0 4.0 0.00 0.00 0.00 80 1021.4
20260507161913 56 280 1.0 3.0 0.00 0.00 0.00 80 1021.4
20260507161407 56 270 1.0 3.0 0.00 0.00 0.00 79 1021.4
20260507160901 55 192 1.0 3.0 0.00 0.00 0.00 80 1021.4
20260507160355 55 289 1.0 3.0 0.00 0.00 0.00 79 1021.4
20260507155850 55 232 1.0 4.0 0.00 0.00 0.00 80 1021.5
20260507155343 55 324 1.0 4.0 0.00 0.00 0.00 80 1021.4
20260507154837 55 53 1.0 3.0 0.00 0.00 0.00 80 1021.5
20260507154331 55 22 1.0 3.0 0.00 0.00 0.00 80 1021.5
20260507153826 55 334 1.0 5.0 0.00 0.00 0.00 81 1021.4
20260507153320 54 12 2.0 5.0 0.00 0.00 0.00 80 1021.4
20260507152813 54 59 1.0 4.0 0.00 0.00 0.00 81 1021.3
20260507152312 54 252 1.0 3.0 0.00 0.00 0.00 81 1021.4
20260507152308 54 279 1.0 3.0 0.00 0.00 0.00 81 1021.3
20260507151256 54 55 1.0 3.0 0.00 0.00 0.00 81 1021.4
20260507150749 54 52 1.0 3.0 0.00 0.00 0.00 82 1021.4
20260507150244 54 325 0.0 3.0 0.00 0.00 0.00 82 1021.4
20260507145741 53 259 0.0 3.0 0.00 0.00 0.00 82 1021.3
20260507145737 53 267 0.0 2.0 0.00 0.00 0.00 82 1021.4
20260507144725 53 286 1.0 3.0 0.00 0.00 0.00 82 1021.4
20260507144219 53 298 1.0 3.0 0.00 0.00 0.00 82 1021.3
20260507143714 53 355 1.0 3.0 0.00 0.00 0.00 82 1021.3
20260507143548 53 306 0.0 2.0 0.00 0.00 0.00 83 1021.3
20260507143439 53 280 0.0 3.0 0.00 0.00 0.00 83 1021.3
20260507142155 53 306 0.0 2.0 0.00 0.00 0.00 83 1021.2
20260507141650 53 305 0.0 2.0 0.00 0.00 0.00 83 1021.2
20260507141147 52 294 0.0 2.0 0.00 0.00 0.00 84 1021.0
20260507141143 53 305 0.0 2.0 0.00 0.00 0.00 84 1021.1
20260507140133 52 294 0.0 2.0 0.00 0.00 0.00 84 1021.1
20260507135625 52 293 0.0 2.0 0.00 0.00 0.00 84 1021.1
20260507135119 52 293 0.0 2.0 0.00 0.00 0.00 84 1021.0
20260507134953 52 242 0.0 2.0 0.00 0.00 0.00 85 1020.9
20260507134843 52 298 0.0 2.0 0.00 0.00 0.00 84 1021.0
20260507133601 52 242 0.0 2.0 0.00 0.00 0.00 85 1021.0
20260507133055 52 321 0.0 2.0 0.00 0.00 0.00 85 1021.0
20260507132549 52 321 0.0 2.0 0.00 0.00 0.00 85 1021.0
20260507132045 53 321 0.0 2.0 0.00 0.00 0.00 86 1021.0
20260507131545 53 326 0.0 1.0 0.00 0.00 0.00 86 1021.0
20260507131045 53 326 0.0 2.0 0.00 0.00 0.00 86 1021.1
20260507130544 53 326 0.0 2.0 0.00 0.00 0.00 86 1021.1
20260507130041 53 284 0.0 1.0 0.00 0.00 0.00 86 1021.1
20260507125539 53 284 0.0 0.0 0.00 0.00 0.00 87 1021.1
20260507125038 53 284 0.0 0.0 0.00 0.00 0.00 87 1021.1
20260507124536 53 284 0.0 1.0 0.00 0.00 0.00 87 1021.2
20260507124036 53 284 0.0 1.0 0.00 0.00 0.00 87 1021.2
20260507123536 53 284 0.0 1.0 0.00 0.00 0.00 87 1021.1
20260507123038 53 284 0.0 1.0 0.00 0.00 0.00 87 1021.2
20260507122536 53 284 0.0 2.0 0.00 0.00 0.00 87 1021.2
20260507122037 53 284 0.0 2.0 0.00 0.00 0.00 87 1021.3
20260507121537 53 284 0.0 1.0 0.00 0.00 0.00 87 1021.3
20260507121036 53 284 0.0 1.0 0.00 0.00 0.00 87 1021.3
20260507120536 53 284 0.0 2.0 0.00 0.00 0.00 87 1021.3
20260507120037 53 284 0.0 2.0 0.00 0.00 0.00 87 1021.4
20260507115537 53 284 0.0 1.0 0.00 0.00 0.00 87 1021.4
20260507115416 53 284 0.0 1.0 0.00 0.00 0.00 87 1021.4
20260507115308 53 284 0.0 0.0 0.00 0.00 0.00 87 1021.4
20260507114036 53 284 0.0 1.0 0.00 0.00 0.00 87 1021.4
20260507113536 53 284 0.0 1.0 0.00 0.00 0.00 87 1021.5
20260507113037 53 284 0.0 1.0 0.00 0.00 0.00 87 1021.5
20260507112536 53 284 0.0 2.0 0.00 0.00 0.00 86 1021.5
20260507112037 53 284 0.0 2.0 0.00 0.00 0.00 86 1021.6
20260507111541 53 282 0.0 3.0 0.00 0.00 0.00 86 1021.6
20260507111536 53 284 0.0 2.0 0.00 0.00 0.00 86 1021.6